Back to catalog

STARLINK-32048

AliveCommunicationsVLEO
NORAD 60156·PAYLOAD·🇺🇸 United States

Launched Jun 27, 2024 from Cape Canaveral Space Force Station

Loading…

Next Passes (next 24 hours)

TLE

FreshSource: CelesTrak SupGP

Epoch: Sep 14, 2026, 15:09 UTC

1 60156C 24120X   26257.63173611  .00062968  00000+0  18622-2 0  2575
2 60156  53.1577 159.0295 0001344  99.4103 138.8341 15.34327773    18

Track STARLINK-32048 in real time with AllMySat

Download on the App Store